CAPE
0 0 0 0 0 0 0 0 0 0 0 0 0 0 0 0 0 0 0 0 0 0 0 0 0 0 0 0 0 0 0 0 0 0 0 0 0 0 0 0 0 0 0 0
0 0 0 0 0 0 0 0 0 0 0 0 0 0 0 0 0 0 0 0 0 0 0 0 1 5 3 1 0 0 0 0 0 0 0 0 0 0 0 0 0 0 0 0
0 0 0 0 0 0 0 0 0 0 0 0 0 0 0 0 0 0 0 0 0 0 0 0 5 13 9 4 0 0 0 0 0 0 0 0 0 0 0 0 0 0 0 0
0 0 0 0 0 0 0 0 0 0 0 0 0 0 0 0 0 0 0 0 0 0 0 0 0 0 0 0 0 0 0 0 0 0 0 0 0 0 0 0 0 0 0 0
0 0 0 0 0 0 0 0 0 0 0 0 0 0 0 0 0 0 0 0 0 0 0 0 0 0 0 0 0 0 0 0 0 0 0 0 0 0 0 0 0 0 0 0
0 0 0 0 0 0 0 0 0 0 0 0 0 0 0 0 0 0 0 0 0 0 0 0 0 0 0 0 0 0 0 0 0 0 0 0 0 0 0 0 0 0 0 0
0 0 0 0 0 0 0 0 0 0 0 0 0 0 0 0 0 0 0 0 0 0 0 0 0 0 0 0 0 0 0 2 2 6 0 0 0 0 0 0 0 0 0 0
0 0 0 0 0 0 0 0 0 0 0 0 0 0 0 0 0 0 0 0 0 0 0 0 0 0 0 0 0 0 0 0 0 2 0 0 0 0 0 0 0 0 0 0
0 0 0 0 0 0 0 0 0 0 0 0 0 0 0 0 0 0 0 0 0 0 0 0 0 0 0 0 0 0 0 0 0 0 0 0 0 0 0 0 0 0 0 0
0 0 0 0 0 0 0 0 0 0 0 0 0 3 1 0 0 0 0 0 0 0 0 0 0 0 0 0 0 0 0 0 0 0 0 0 0 0 0 0 0 0 0 0
0 0 0 0 0 0 0 0 0 0 0 0 0 0 0 0 0 0 0 0 0 0 0 0 0 0 0 0 0 0 0 0 0 0 0 0 0 0 0 0 0 0 0 0
0 0 0 0 0 0 0 0 0 0 0 0 0 0 0 0 0 0 0 0 0 0 0 0 0 0 0 0 0 0 0 0 0 0 0 0 0 0 0 0 0 0 0 0
0 0 0 0 0 0 0 0 0 0 0 0 0 0 0 0 0 0 0 0 0 0 0 0 0 0 0 0 0 0 0 0 0 0 0 0 0 0 0 0 0 0 0 0
0 0 0 0 0 0 0 0 0 3 0 0 0 1 4 0 0 0 0 0 0 0 0 0 0 0 0 0 0 0 0 0 0 0 0 0 0 0 0 0 0 0 0 0
0 0 0 0 0 0 0 0 0 6 13 6 2 0 1 0 0 0 0 0 0 0 0 0 0 0 0 0 0 0 0 0 0 0 0 0 0 0 0 0 0 0 0 0
0 0 0 0 0 0 0 0 0 3 19 11 2 0 1 0 0 0 0 0 0 0 0 0 0 2 0 0 6 10 6 2 0 0 0 0 0 0 0 0 0 0 0 0
0 0 0 0 0 0 0 0 0 1 0 0 0 0 0 0 0 0 0 0 0 0 1 0 0 0 0 7 8 10 11 0 0 1 4 8 4 1 1 0 2 0 0 0
0 0 0 0 0 0 0 0 0 0 0 0 0 0 0 0 0 0 0 4 13 12 1 0 2 1 3 3 2 0 0 1 9 19 21 10 19 22 11 3 1 1 0 0
0 0 4 1 0 0 0 0 0 0 0 0 0 0 0 0 0 0 0 10 4 0 1 3 2 1 4 2 5 0 1 1 4 8 4 9 14 8 0 4 4 0 0 0
0 0 0 0 0 0 0 0 0 2 0 0 0 0 0 0 2 0 0 0 0 0 2 1 2 3 3 3 4 3 4 4 3 3 2 3 6 9 3 1 0 0 0 0
0 0 0 0 0 0 0 0 0 0 0 0 0 0 1 0 15 2 0 0 0 0 0 2 2 2 3 2 3 2 2 3 2 3 5 4 3 3 0 0 0 0 0 0
0 0 0 0 3 0 4 1 1 0 0 0 0 0 1 0 0 0 0 1 0 0 4 2 2 3 1 1 1 2 2 1 1 1 1 1 0 0 0 0 0 0 0 3
0 0 0 4 1 3 0 2 3 0 0 8 2 0 0 0 0 0 1 1 1 1 2 2 2 2 1 1 1 1 0 1 1 1 1 1 0 1 0 0 1 2 1 1
0 0 0 3 0 1 0 0 0 0 3 0 2 0 0 0 0 0 3 2 1 3 3 2 2 2 2 1 2 1 0 1 1 1 1 0 0 0 0 1 1 2 1 1
0 1 0 0 0 0 0 0 0 0 0 1 0 0 0 0 0 1 2 3 3 3 2 2 2 2 2 2 2 1 1 0 1 1 0 0 0 2 1 0 0 0 1 0
0 0 2 0 0 0 0 0 3 0 0 0 0 0 0 0 0 2 2 1 2 3 2 1 2 2 1 1 1 0 0 0 0 1 0 0 0 1 1 0 0 0 0 0
CIN
0 0 0 0 0 0 0 0 0 0 0 0 0 0 0 0 0 0 0 0 0 0 0 0 0 0 0 0 0 0 0 0 0 0 0 0 0 0 0 0 0 0 0 0
0 0 0 0 0 0 0 0 0 0 0 0 0 0 0 0 0 0 0 0 0 0 0 0 -392 -489 -474 -125 0 0 0 0 0 0 0 0 0 0 0 0 0 0 0 0
0 0 0 0 0 0 0 0 0 0 0 0 0 0 0 0 0 0 0 0 0 0 0 0 -411 -384 -396 -371 0 0 0 0 0 0 0 0 0 0 0 0 0 0 0 0
0 0 0 0 0 0 0 0 0 0 0 0 0 0 0 0 0 0 0 0 0 0 0 0 0 -5 0 0 0 0 0 0 0 0 0 0 0 0 0 0 0 0 0 0
0 0 0 0 0 0 0 0 0 0 0 0 0 0 0 0 0 0 0 0 0 0 0 0 0 0 0 0 0 0 0 0 0 0 0 0 0 0 0 0 0 0 0 0
0 0 0 0 0 0 0 0 0 0 0 0 0 0 0 0 0 0 0 0 0 0 0 0 0 0 0 0 0 0 0 0 0 0 0 0 0 0 0 0 0 0 0 0
0 0 0 0 0 0 0 0 0 0 0 0 0 0 0 0 0 0 0 0 0 0 0 0 0 0 0 0 0 0 -2 -2 -3 -48 0 0 0 0 0 0 0 0 0 0
0 0 0 0 0 0 0 0 0 0 0 0 0 0 0 0 0 0 0 0 0 0 0 0 0 0 0 0 0 0 0 0 0 -4 0 0 0 0 0 0 0 0 0 0
0 0 0 0 0 0 0 0 0 0 0 0 0 0 0 0 0 0 0 0 0 0 0 0 0 0 0 0 0 0 0 0 0 0 0 0 0 0 0 0 0 0 0 0
0 0 0 0 0 0 0 0 0 0 0 0 0 -23 -5 0 0 0 0 0 0 0 0 0 0 0 0 0 0 0 0 0 0 0 0 0 0 0 0 0 0 0 0 0
0 0 0 0 0 0 0 0 0 0 0 0 0 0 0 0 0 0 0 0 0 0 0 0 0 0 0 0 0 0 0 0 0 0 0 0 0 0 0 0 0 0 0 0
0 0 0 0 0 0 0 0 0 0 0 0 0 0 0 0 0 0 0 0 0 0 0 0 0 0 0 0 0 0 0 0 0 0 0 0 0 0 0 0 0 0 0 0
0 0 0 0 0 0 0 0 0 0 0 0 0 0 0 0 0 0 0 0 0 0 0 0 0 0 0 0 0 0 0 0 0 0 0 0 0 0 0 0 0 0 0 0
0 0 0 0 0 0 0 0 0 -12 0 0 0 -28 -77 0 0 0 0 0 0 0 0 0 0 0 0 0 0 0 0 0 0 0 0 0 0 0 0 0 0 0 0 0
0 0 0 0 0 0 0 0 0 -14 -27 -16 -25 0 -70 0 0 0 0 0 0 0 0 0 0 0 0 0 0 0 0 0 0 0 0 0 0 0 0 0 0 0 0 0
0 0 0 0 0 0 0 0 0 -50 -56 -48 -37 0 -73 0 0 0 0 0 0 0 0 -1 0 -2 0 0 -1 -3 -5 -7 0 0 0 0 0 0 0 0 0 0 0 0
0 0 0 0 0 0 0 0 0 -12 -23 0 0 0 0 0 0 0 0 0 -4 -2 -10 0 -1 -1 0 -1 -1 -1 -5 -4 0 -6 -16 -15 -17 -7 -7 -6 -11 -2 0 0
0 0 0 0 -5 0 0 0 0 0 0 0 0 0 0 0 0 0 0 -11 -19 -24 -7 -1 0 0 0 -1 -1 -2 0 -6 -4 -2 -3 -8 -2 -2 -12 -15 -9 -2 0 0
0 0 -6 -1 0 0 0 0 0 0 0 0 0 0 0 0 0 0 0 -11 -6 0 -1 0 0 -1 0 -1 -1 0 0 0 -2 -1 -1 -1 -1 -3 -4 -6 -8 0 0 0
0 0 0 0 0 0 0 0 0 -50 0 0 0 0 0 0 0 0 0 0 0 0 0 0 0 0 0 0 0 0 0 0 0 0 -1 -1 -3 -1 -2 -8 -17 0 0 0
0 0 0 0 0 0 0 0 -12 0 0 0 0 0 -12 -3 -3 -3 0 0 0 0 0 -1 0 0 0 0 0 0 0 0 0 0 0 0 0 0 -1 -5 0 0 0 0
0 0 0 -1 -4 0 -43 -21 -6 -1 0 0 0 -6 -13 0 0 0 0 0 0 0 0 0 0 0 0 0 0 0 0 0 0 0 0 0 0 0 0 0 0 0 0 0
0 0 0 -6 -4 -45 -1 -21 -21 0 0 -21 -23 0 0 0 0 0 0 0 0 -1 0 0 0 0 0 0 0 0 0 0 0 0 0 0 0 0 0 0 0 0 0 0
0 0 0 -10 -7 -6 0 0 0 0 -32 -28 -54 0 0 0 0 0 0 0 0 0 0 0 0 0 0 0 0 0 0 0 0 0 0 0 0 0 0 0 0 0 0 0
0 -13 0 0 0 0 0 0 0 0 0 -41 0 0 0 0 0 0 0 0 0 0 0 0 0 0 0 0 0 0 0 0 0 0 0 0 0 0 0 0 0 0 0 0
0 0 -11 0 0 0 0 0 -21 0 0 0 0 0 0 0 0 0 -1 0 0 0 0 0 0 0 0 0 0 0 0 0 0 0 0 0 0 0 0 0 0 0 0 0
Wind_Speed
22 14 18 21 14 16 19 23 25 25 25 27 25 26 30 34 37 41 39 34 29 22 10 8 7 5 4 5 6 10 14 17 21 23 28 29 30 30 32 32 33 32 34 34
23 16 25 24 19 23 25 25 28 25 32 30 35 36 35 40 39 41 39 35 25 16 8 8 8 6 5 5 7 11 12 16 20 20 23 22 26 26 29 32 33 33 35 35
19 13 29 28 22 21 21 26 28 30 33 29 37 36 38 32 31 33 37 32 25 19 13 9 7 8 8 9 11 10 12 17 18 19 21 23 26 27 30 34 34 35 35 36
17 27 31 28 21 20 24 28 31 32 37 36 31 39 33 25 30 31 32 31 28 22 16 18 19 19 20 19 16 17 17 17 17 18 21 24 29 31 32 34 35 37 36 35
18 31 29 26 22 23 24 28 31 31 32 34 33 27 26 30 30 30 28 26 24 23 21 21 21 22 23 21 20 20 19 19 18 19 22 26 28 26 30 32 36 37 36 34
25 21 26 23 24 27 28 34 34 32 30 29 23 28 29 29 29 27 26 26 25 22 22 21 20 22 22 21 22 23 25 26 25 26 29 29 26 27 30 35 38 39 38 36
20 22 21 32 29 27 31 33 34 31 31 28 25 30 27 23 25 27 28 26 27 27 28 28 29 27 25 24 25 24 27 31 35 34 33 35 31 27 30 36 39 41 41 37
21 24 27 31 26 26 24 26 26 32 34 36 28 28 22 23 25 26 27 27 29 29 26 28 29 29 32 35 36 38 34 33 34 33 35 35 31 33 33 34 37 41 38 36
24 22 26 28 25 24 24 29 25 29 29 34 29 22 15 28 30 32 30 31 35 35 35 34 31 32 32 33 33 34 35 36 38 42 36 33 28 32 36 34 35 36 37 36
22 26 23 23 26 23 30 26 30 29 34 37 31 30 31 37 37 38 39 35 36 37 36 37 35 34 33 34 36 35 36 37 37 34 31 31 31 32 33 34 35 36 37 40
24 22 23 26 26 30 29 29 28 26 28 32 37 33 29 32 35 38 36 34 36 38 38 38 40 38 37 38 39 38 34 32 32 30 30 31 32 33 33 35 37 40 40 41
21 22 26 28 26 20 23 28 29 33 35 30 32 34 30 32 34 35 34 38 41 42 43 42 40 39 41 41 38 37 36 36 34 33 34 35 36 38 40 41 41 41 41 43
20 24 32 32 21 30 31 32 34 27 28 32 31 31 32 34 36 37 40 42 41 42 44 43 44 41 42 45 42 43 40 39 37 38 40 40 41 43 48 47 47 45 44 45
20 22 23 26 27 28 33 36 34 27 29 28 30 34 34 37 39 40 42 41 44 44 38 40 38 42 47 47 49 47 45 43 42 42 42 42 43 46 52 51 50 47 44 46
22 24 20 21 24 27 32 32 30 27 26 30 33 32 34 33 38 42 40 44 42 46 39 38 44 48 50 52 52 45 42 43 39 40 42 45 47 48 50 48 46 44 39 40
22 24 22 25 25 26 31 28 26 30 29 28 30 34 25 35 39 42 47 49 50 44 41 50 58 54 55 57 50 45 44 40 41 43 44 43 44 44 44 42 42 40 38 37
21 22 26 28 29 31 28 26 29 27 26 29 31 33 33 46 47 48 52 49 45 44 55 58 59 58 54 48 47 38 35 32 26 34 38 37 44 44 42 41 40 39 38 38
18 22 26 30 29 32 26 24 25 24 27 28 28 32 40 43 43 45 42 40 45 50 50 49 48 47 45 46 43 31 23 17 16 19 25 35 36 39 38 39 41 39 36 35
13 19 25 28 29 28 24 25 28 29 29 25 33 44 44 46 37 41 41 43 49 45 34 26 23 21 20 18 33 38 31 32 34 28 30 31 34 36 36 34 33 33 33 32
19 20 23 27 31 32 25 22 25 23 28 24 41 37 36 48 44 48 54 49 40 27 26 25 22 19 17 15 14 11 14 28 30 30 29 29 31 30 30 30 31 30 30 30
25 26 26 26 26 22 23 23 28 30 28 33 33 32 27 22 29 31 37 34 30 28 30 28 25 25 23 19 20 16 16 24 25 34 32 30 30 29 28 27 27 27 27 26
25 25 25 25 26 26 25 28 29 23 26 27 29 30 21 25 29 33 35 31 27 28 33 31 28 24 19 17 28 38 29 23 31 30 30 27 25 23 24 25 26 25 24 24
23 21 24 19 20 20 22 23 21 24 26 28 29 28 28 27 29 32 30 25 28 35 25 20 19 19 21 20 22 30 37 33 30 27 25 22 22 21 22 24 24 23 20 14
20 18 20 23 19 20 24 21 23 29 26 27 28 32 34 26 29 29 27 22 25 24 18 18 22 26 28 26 32 20 33 31 27 24 22 19 19 19 20 22 23 22 12 9
18 18 19 20 19 21 21 20 27 26 28 30 33 36 32 26 27 28 24 19 18 17 17 26 24 25 22 15 9 27 28 25 23 21 18 18 17 16 10 9 8 9 10 11
15 17 20 23 18 19 21 21 23 27 30 32 39 50 45 30 25 22 20 16 15 16 19 20 22 21 16 10 15 25 22 21 20 18 17 18 16 13 10 9 7 7 6 7
Wind_Direction
337 8 350 347 11 1 345 338 333 338 343 335 332 330 331 329 324 318 314 314 314 308 283 242 241 256 292 317 341 344 342 345 344 338 332 325 321 319 318 318 320 321 321 319
325 356 342 340 343 335 336 338 333 334 330 331 324 321 326 326 329 328 321 315 309 308 275 248 248 259 276 305 324 333 338 346 346 344 341 339 335 330 324 321 319 319 318 319
355 15 317 332 350 351 347 337 336 332 331 332 326 322 327 336 347 351 354 352 348 336 330 315 299 292 297 302 310 320 332 339 341 348 342 334 331 330 328 324 321 320 319 316
8 327 319 333 347 348 336 335 331 330 330 327 337 320 330 346 346 351 360 2 0 353 348 337 328 320 320 322 326 329 334 341 337 346 340 330 328 319 322 323 321 317 320 319
4 336 336 348 353 347 339 338 334 331 328 328 331 329 332 339 340 343 349 360 4 5 0 348 337 333 328 330 330 330 330 326 329 327 328 325 328 323 322 323 319 317 319 320
360 22 10 5 354 347 341 332 331 332 331 330 343 336 331 333 336 342 347 347 349 351 348 348 350 347 340 338 335 328 322 320 322 321 317 316 321 324 322 319 316 317 318 318
354 1 9 356 348 347 342 338 333 332 331 330 337 332 330 341 342 342 341 343 339 333 333 332 328 326 328 326 324 324 314 315 314 312 310 308 308 317 317 314 313 311 316 319
354 351 355 354 353 348 350 351 343 330 328 324 333 325 325 340 347 346 343 340 335 332 331 331 329 321 314 306 303 303 304 307 307 304 303 306 302 307 312 314 314 310 317 319
348 349 352 353 354 355 349 340 339 329 326 323 327 333 331 337 335 336 338 332 328 325 323 330 331 329 326 321 316 315 314 309 302 300 302 302 304 306 306 313 315 314 313 316
354 345 357 357 353 357 348 348 340 338 329 326 331 329 326 325 326 327 326 328 327 326 326 328 330 328 332 331 325 319 316 311 312 314 313 310 310 309 311 311 312 313 312 307
354 353 353 353 352 345 347 347 347 342 336 329 325 327 340 336 333 330 330 330 329 328 327 324 323 325 327 327 324 320 322 323 320 318 317 315 313 311 312 310 309 305 307 307
3 356 349 347 346 3 355 348 345 335 330 325 321 321 339 341 337 337 334 331 328 327 326 323 323 324 321 321 324 322 318 315 314 313 311 308 309 307 304 304 304 305 307 306
3 355 346 349 358 347 346 342 336 335 336 328 325 326 336 334 332 331 326 326 332 331 328 323 321 322 321 319 318 315 312 311 308 306 304 303 303 302 296 297 298 300 302 300
3 355 352 345 342 345 344 342 342 342 336 333 328 328 332 330 329 324 328 330 329 328 331 329 328 324 321 319 316 313 309 308 306 304 302 301 301 299 293 292 292 293 297 294
358 351 351 349 345 344 344 344 348 346 344 336 336 334 336 337 332 328 331 329 329 328 329 329 327 323 321 318 316 313 311 310 310 307 305 300 298 296 291 289 289 289 296 296
358 351 353 348 349 346 344 351 354 348 345 345 340 336 343 338 336 333 327 325 325 328 329 325 322 321 319 316 315 314 312 311 308 306 304 302 297 292 287 287 286 290 294 295
357 356 352 346 349 347 349 353 350 350 350 344 340 339 340 328 332 329 323 328 330 329 326 325 324 321 320 320 317 318 317 316 313 313 308 303 290 281 280 279 280 285 284 265
357 355 352 346 352 350 353 360 357 352 347 347 346 343 338 336 334 333 335 334 333 330 329 329 330 329 328 324 321 323 318 307 315 269 254 260 258 261 271 274 267 265 262 256
357 354 351 352 348 343 354 358 355 351 348 356 348 337 337 334 340 341 341 337 333 333 331 325 329 321 322 307 315 326 283 269 271 259 259 256 262 265 260 255 250 256 256 252
20 10 356 351 347 347 356 360 358 357 348 359 343 345 346 334 302 304 337 339 337 324 337 336 334 320 318 312 299 324 273 272 270 269 260 255 259 251 246 244 241 243 244 245
354 353 353 354 350 352 0 3 360 350 346 345 346 346 343 316 339 327 335 333 336 341 344 344 344 342 341 340 346 276 268 265 266 288 280 262 259 252 240 234 229 231 229 233
357 358 359 359 355 357 3 353 355 348 344 345 346 347 326 335 334 334 334 338 337 345 347 349 347 346 339 337 341 316 274 264 283 283 292 278 264 249 244 236 226 219 224 234
3 4 355 359 354 357 359 356 352 349 346 348 349 346 346 338 319 325 332 329 347 349 347 341 335 333 344 347 346 331 287 288 288 288 281 278 272 255 243 228 221 223 237 265
4 11 4 358 6 356 353 355 355 352 353 352 349 348 348 320 329 324 340 326 350 350 319 331 349 352 349 348 338 346 285 287 279 272 266 266 263 260 247 228 222 228 263 283
1 9 4 359 355 354 355 354 353 358 355 353 352 349 348 337 327 346 328 333 336 321 330 355 354 355 355 349 318 273 282 281 278 265 251 241 250 251 261 291 276 285 263 253
11 7 359 352 358 359 356 355 358 357 355 355 350 334 345 350 340 338 335 326 327 326 345 351 355 357 353 324 276 285 267 265 261 261 238 217 226 239 262 270 276 307 275 251